Regional Weather Roundup
Issued by NWS Kansas City/Pleasant Hill, MO

Home | Current Version | Previous Version | Text Only | Print | Product List | Glossary On
Versions: 1 2 3 4 5 6 7 8 9 10 11 12 13 14 15 16 17 18 19 20 21 22 23 24 25 26 27 28 29 30 31 32 33 34 35 36 37 38 39 40 41 42 43 44 45 46 47 48 49 50
000
ASUS43 KEAX 200011
RWREAX

WEATHER ROUNDUP FOR EASTERN KANSAS AND NORTHWEST MISSOURI
NATIONAL WEATHER SERVICE KANSAS CITY/PLEASANT HILL MO
700 PM CDT SAT APR 19 2014

KSZ040-057-103>105-MOZ028-029-037-043-200100-
...KANSAS CITY METROPOLITAN AREA...

CITY           SKY/WX    TMP DP  RH WIND       PRES   REMARKS
K.C. INTL      PTSUNNY   72  43  35 S15G25    30.06S
6HR MIN TEMP:  71; 6HR MAX TEMP:  77;

K.C. DOWNTOWN  PTSUNNY   74  45  35 S9        30.05F
6HR MIN TEMP:  74; 6HR MAX TEMP:  78;

LEES SUMMIT    PTSUNNY   73  43  33 S9        30.08S
6HR MIN TEMP:  72; 6HR MAX TEMP:  76;

OLATHE - IXD   CLOUDY    71  44  37 S12       30.08S
6HR MIN TEMP:  71; 6HR MAX TEMP:  76;

OLATHE - OJC   CLOUDY    71  44  37 S12       30.06F
6HR MIN TEMP:  71; 6HR MAX TEMP:  75;

LAWRENCE       PTSUNNY   74  46  36 S14       30.05S

$$

MOZ001>008-011>017-020>025-030>033-038>040-044>046-053-054-200100-
...NORTHERN AND CENTRAL MISSOURI...

CITY           SKY/WX    TMP DP  RH WIND       PRES   REMARKS
ST. JOSEPH     MOSUNNY   75  44  33 S15G26    30.04S
6HR MIN TEMP:  75; 6HR MAX TEMP:  80;

MOSBY          FAIR      73  43  33 S8G16     30.07S
WARRENSBURG    PTCLDY   N/A N/A N/A S8        30.09S
WHITEMAN AFB   PTCLDY    70  44  39 S10       30.09S
6HR MIN TEMP:  70; 6HR MAX TEMP:  76;

CLINTON        PTCLDY    72  48  43 S6        30.10S
SEDALIA        CLEAR     74  44  34 S8        30.10S
6HR MIN TEMP:  73; 6HR MAX TEMP:  78;

WARSAW         NOT AVBL
MARSHALL         N/A     75  46  35 S7        30.10S
CHILLICOTHE      N/A     74  43  32 S10       30.09R
6HR MIN TEMP:  74; 6HR MAX TEMP:  77;

MOBERLY        CLEAR     75  39  27 S12G17    30.11F
KIRKSVILLE     PTCLDY    72  42  34 S12       30.11R
6HR MIN TEMP:  72; 6HR MAX TEMP:  78;


$$

MOZ041-047>049-056>058-063>065-088>090-097-200100-
...EASTERN AND SOUTHERN MISSOURI...

CITY           SKY/WX    TMP DP  RH WIND       PRES   REMARKS
ST. LOUIS INTL MOCLDY    73  41  31 SE13      30.16F
6HR MIN TEMP:  72; 6HR MAX TEMP:  76;

SPIRIT OF STL  PTCLDY    72  40  31 E6        30.14F
COLUMBIA       CLEAR     73  39  29 S10       30.11S
JEFFERSON CITY PTCLDY    77  36  22 SE7       30.10S
MEXICO         PTCLDY    72  45  37 SE6       30.12S
HANNIBAL       CLEAR     73  28  19 SE8       30.13F
ROLLA          CLEAR     71  42  35 S8        30.11S
LEBANON        CLEAR     72  36  26 S8        30.13F
OSAGE BEACH    CLEAR     75  37  25 S9        30.12S
SPRINGFIELD    CLEAR     72  45  37 SE10      30.11F
NEVADA         MOSUNNY   70  46  43 S7        30.10S
JOPLIN         SUNNY     72  45  37 S10       30.09F
WEST PLAINS    CLEAR     73  39  29 S3        30.16S

$$

IAZ060-094-KSZ022-034>040-054-083-096-NEZ052-066-093-200100-
...KANSAS...SOUTHEAST NEBRASKA AND IOWA...

CITY           SKY/WX    TMP DP  RH WIND       PRES   REMARKS
TOPEKA         PTSUNNY   75  44  33 SE16G23   30.03S
6HR MIN TEMP:  74; 6HR MAX TEMP:  79;

MANHATTAN      PTSUNNY   77  46  33 S17G26    29.98S
EMPORIA        PTSUNNY   73  45  36 S18       30.03R
CHANUTE        MOSUNNY   72  42  34 S15       30.07S
WICHITA        PTSUNNY   76  48  37 S25G32    30.00S
OMAHA          PTSUNNY   78  43  28 S16       29.95S
LINCOLN        CLOUDY    79  48  33 S12       29.95S
FALLS CITY     MOSUNNY   76  43  30 S22G30    30.00
LAMONI         MOSUNNY   73  43  33 S14G23    30.06R
DES MOINES     PTSUNNY   74  42  31 S12G20    30.05R

$$




USA.gov is the U.S. government's official web portal to all federal, state and local government web resources and services.